���t,����,�O�C���x,�����t���O,�O�C���Ύ��x,�����t���O,���ԉ��x,�����t���O,���ԑ��Ύ��x,�����t���O,�g�C������,�����t���O,�L�b�`�����x,�����t���O,��󒲎����x,�����t���O
2004/3/1,0:00,10.4,0,86,0,=,1,=,1,=,1,20.2,0,18,0
2004/3/1,0:15,10.3,0,86,0,=,1,=,1,=,1,20.1,0,18,0
2004/3/1,0:30,9.8,0,89,0,=,1,=,1,=,1,20,0,18,0
2004/3/1,0:45,9.8,0,91,0,=,1,=,1,=,1,19.9,0,18,0
2004/3/1,1:00,10,0,90,0,=,1,=,1,=,1,19.9,0,18,0
2004/3/1,1:15,10,0,90,0,=,1,=,1,=,1,19.8,0,18,0
2004/3/1,1:30,9.9,0,91,0,=,1,=,1,=,1,19.7,0,17.9,0
2004/3/1,1:45,10,0,89,0,=,1,=,1,=,1,19.7,0,17.9,0
2004/3/1,2:00,10.2,0,87,0,=,1,=,1,=,1,19.6,0,17.9,0
2004/3/1,2:15,10.1,0,86,0,=,1,=,1,=,1,19.5,0,17.9,0
2004/3/1,2:30,10.4,0,84,0,=,1,=,1,=,1,19.5,0,17.9,0
2004/3/1,2:45,10.4,0,83,0,=,1,=,1,=,1,19.4,0,17.8,0
2004/3/1,3:00,10.6,0,79,0,=,1,=,1,=,1,19.4,0,17.8,0
2004/3/1,3:15,10.8,0,72,0,=,1,=,1,=,1,19.3,0,17.8,0
2004/3/1,3:30,11,0,70,0,=,1,=,1,=,1,19.3,0,17.8,0
2004/3/1,3:45,11,0,71,0,=,1,=,1,=,1,19.2,0,17.8,0
2004/3/1,4:00,10.6,0,76,0,=,1,=,1,=,1,19.2,0,17.7,0
2004/3/1,4:15,10.6,0,70,0,=,1,=,1,=,1,19.1,0,17.7,0
2004/3/1,4:30,10.7,0,68,0,=,1,=,1,=,1,19.1,0,17.7,0
2004/3/1,4:45,10.6,0,67,0,=,1,=,1,=,1,19,0,17.6,0
2004/3/1,5:00,10.3,0,72,0,=,1,=,1,=,1,19,0,17.6,0
2004/3/1,5:15,10.2,0,70,0,=,1,=,1,=,1,18.9,0,17.5,0
2004/3/1,5:30,10.3,0,65,0,=,1,=,1,=,1,18.8,0,17.5,0
2004/3/1,5:45,10.4,0,65,0,=,1,=,1,=,1,18.8,0,17.5,0
2004/3/1,6:00,10.4,0,63,0,=,1,=,1,=,1,18.7,0,17.5,0
2004/3/1,6:15,10.4,0,64,0,=,1,=,1,=,1,18.7,0,17.5,0
2004/3/1,6:30,10.5,0,70,0,=,1,=,1,=,1,18.6,0,17.4,0
2004/3/1,6:45,10.1,0,77,0,=,1,=,1,=,1,18.5,0,17.4,0
2004/3/1,7:00,9.9,0,80,0,=,1,=,1,=,1,18.5,0,17.4,0
2004/3/1,7:15,9.9,0,76,0,=,1,=,1,=,1,18.5,0,17.3,0
2004/3/1,7:30,10,0,73,0,=,1,=,1,=,1,18.4,0,17.3,0
2004/3/1,7:45,10.1,0,67,0,=,1,=,1,=,1,18.3,0,17.3,0
2004/3/1,8:00,10.3,0,64,0,=,1,=,1,=,1,18.4,0,17.3,0
2004/3/1,8:15,10.3,0,65,0,=,1,=,1,=,1,18.6,0,17.2,0
2004/3/1,8:30,10.1,0,71,0,=,1,=,1,=,1,18.6,0,17.2,0
2004/3/1,8:45,9.4,0,81,0,=,1,=,1,=,1,18.5,0,17.2,0
2004/3/1,9:00,9.1,0,83,0,=,1,=,1,=,1,18.4,0,17.1,0
2004/3/1,9:15,9,0,85,0,=,1,=,1,=,1,18.3,0,17.1,0
2004/3/1,9:30,8.9,0,84,0,=,1,=,1,=,1,18.2,0,17,0
2004/3/1,9:45,9.2,0,80,0,=,1,=,1,=,1,18.1,0,17,0
2004/3/1,10:00,9.2,0,77,0,=,1,=,1,=,1,18,0,17,0
2004/3/1,10:15,9.3,0,75,0,=,1,=,1,=,1,18,0,16.9,0
2004/3/1,10:30,9.2,0,74,0,=,1,=,1,=,1,18,0,16.9,0
2004/3/1,10:45,9.3,0,72,0,=,1,=,1,=,1,18,0,16.8,0
2004/3/1,11:00,9.3,0,71,0,=,1,=,1,=,1,17.9,0,16.8,0
2004/3/1,11:15,9.5,0,69,0,=,1,=,1,=,1,17.9,0,16.8,0
2004/3/1,11:30,9.5,0,71,0,=,1,=,1,=,1,17.8,0,16.7,0
2004/3/1,11:45,9.3,0,76,0,=,1,=,1,=,1,17.9,0,16.7,0
2004/3/1,12:00,9.2,0,78,0,=,1,=,1,=,1,18.7,0,16.6,0
2004/3/1,12:15,9.2,0,76,0,=,1,=,1,=,1,20,0,16.6,0
2004/3/1,12:30,9.1,0,80,0,=,1,=,1,=,1,20.3,0,16.6,0
2004/3/1,12:45,9.3,0,76,0,=,1,=,1,=,1,20.8,0,16.5,0
2004/3/1,13:00,9.5,0,70,0,=,1,=,1,=,1,21.3,0,16.5,0
2004/3/1,13:15,9.6,0,67,0,=,1,=,1,=,1,21.9,0,16.6,0
2004/3/1,13:30,9.6,0,63,0,=,1,=,1,=,1,22.5,0,16.6,0
2004/3/1,13:45,10.3,0,60,0,=,1,=,1,=,1,22.6,0,16.5,0
2004/3/1,14:00,10.1,0,58,0,=,1,=,1,=,1,22.6,0,16.5,0
2004/3/1,14:15,10.2,0,55,0,=,1,=,1,=,1,22.8,0,16.4,0
2004/3/1,14:30,9.9,0,58,0,=,1,=,1,=,1,22.9,0,16.4,0
2004/3/1,14:45,9.8,0,62,0,=,1,=,1,=,1,22.9,0,16.3,0
2004/3/1,15:00,9.6,0,61,0,=,1,=,1,=,1,22.6,0,16.2,0
2004/3/1,15:15,9.6,0,60,0,=,1,=,1,=,1,22.2,0,16.2,0
2004/3/1,15:30,9.8,0,56,0,=,1,=,1,=,1,22,0,16.1,0
2004/3/1,15:45,9.8,0,54,0,=,1,=,1,=,1,21.9,0,16.1,0
2004/3/1,16:00,9.6,0,53,0,=,1,=,1,=,1,21.7,0,16,0
2004/3/1,16:15,9.4,0,52,0,=,1,=,1,=,1,21.6,0,15.9,0
2004/3/1,16:30,9.3,0,52,0,=,1,=,1,=,1,21.6,0,15.9,0
2004/3/1,16:45,9.1,0,53,0,=,1,=,1,=,1,22.1,0,15.8,0
2004/3/1,17:00,9,0,54,0,=,1,=,1,=,1,22.5,0,15.8,0
2004/3/1,17:15,8.8,0,55,0,=,1,=,1,=,1,22.7,0,15.7,0
2004/3/1,17:30,8.6,0,55,0,=,1,=,1,=,1,22.9,0,15.7,0
2004/3/1,17:45,8.6,0,56,0,=,1,=,1,=,1,23,0,15.6,0
2004/3/1,18:00,8.5,0,56,0,=,1,=,1,=,1,23.2,0,15.6,0
2004/3/1,18:15,8.5,0,56,0,=,1,=,1,=,1,23.3,0,15.5,0
2004/3/1,18:30,8.4,0,57,0,=,1,=,1,=,1,23.3,0,15.5,0
2004/3/1,18:45,8.5,0,58,0,=,1,=,1,=,1,23.3,0,15.5,0
2004/3/1,19:00,8.3,0,60,0,=,1,=,1,=,1,23,0,15.6,0
2004/3/1,19:15,8.4,0,62,0,=,1,=,1,=,1,22.8,0,15.6,0
2004/3/1,19:30,8.3,0,65,0,=,1,=,1,=,1,22.7,0,15.6,0
2004/3/1,19:45,8.5,0,65,0,=,1,=,1,=,1,22.4,0,15.6,0
2004/3/1,20:00,8.4,0,65,0,=,1,=,1,=,1,22.1,0,15.5,0
2004/3/1,20:15,8.4,0,64,0,=,1,=,1,=,1,22,0,15.5,0
2004/3/1,20:30,8.3,0,63,0,=,1,=,1,=,1,21.8,0,15.4,0
2004/3/1,20:45,8.3,0,64,0,=,1,=,1,=,1,21.6,0,15.4,0
2004/3/1,21:00,7.9,0,66,0,=,1,=,1,=,1,22.6,0,15.4,0
2004/3/1,21:15,7.7,0,67,0,=,1,=,1,=,1,22.4,0,15.3,0
2004/3/1,21:30,7.6,0,67,0,=,1,=,1,=,1,22.2,0,15.3,0
2004/3/1,21:45,7.4,0,68,0,=,1,=,1,=,1,21.9,0,15.3,0
2004/3/1,22:00,7.3,0,70,0,=,1,=,1,=,1,21.6,0,15.2,0
2004/3/1,22:15,7.2,0,71,0,=,1,=,1,=,1,21.4,0,15.2,0
2004/3/1,22:30,7.1,0,71,0,=,1,=,1,=,1,21.1,0,15.1,0
2004/3/1,22:45,7,0,72,0,=,1,=,1,=,1,20.9,0,15.1,0
2004/3/1,23:00,6.8,0,73,0,=,1,=,1,=,1,20.6,0,15,0
2004/3/1,23:15,6.8,0,74,0,=,1,=,1,=,1,20.4,0,15,0
2004/3/1,23:30,6.6,0,76,0,=,1,=,1,=,1,20.1,0,14.9,0
2004/3/1,23:45,6.3,0,77,0,=,1,=,1,=,1,19.9,0,14.9,0
2004/3/2,0:00,6,0,80,0,=,1,=,1,=,1,19.8,0,14.8,0
2004/3/2,0:15,6.1,0,81,0,=,1,=,1,=,1,19.8,0,14.8,0
2004/3/2,0:30,6.1,0,80,0,=,1,=,1,=,1,19.7,0,14.8,0
2004/3/2,0:45,6,0,80,0,=,1,=,1,=,1,19.6,0,14.8,0
2004/3/2,1:00,5.7,0,81,0,=,1,=,1,=,1,19.5,0,14.8,0
2004/3/2,1:15,5.8,0,82,0,=,1,=,1,=,1,19.4,0,14.8,0
2004/3/2,1:30,5.5,0,83,0,=,1,=,1,=,1,19.3,0,14.8,0
2004/3/2,1:45,5.5,0,84,0,=,1,=,1,=,1,19.2,0,14.7,0
2004/3/2,2:00,5.6,0,83,0,=,1,=,1,=,1,19.2,0,14.7,0
2004/3/2,2:15,5.6,0,83,0,=,1,=,1,=,1,19.1,0,14.7,0
2004/3/2,2:30,5.5,0,83,0,=,1,=,1,=,1,19,0,14.6,0
2004/3/2,2:45,5,0,85,0,=,1,=,1,=,1,18.9,0,14.6,0
2004/3/2,3:00,5.1,0,86,0,=,1,=,1,=,1,18.8,0,14.6,0
2004/3/2,3:15,5.2,0,86,0,=,1,=,1,=,1,18.7,0,14.6,0
2004/3/2,3:30,5.2,0,86,0,=,1,=,1,=,1,18.6,0,14.6,0
2004/3/2,3:45,5.2,0,86,0,=,1,=,1,=,1,18.5,0,14.6,0
2004/3/2,4:00,5.3,0,85,0,=,1,=,1,=,1,18.4,0,14.6,0
2004/3/2,4:15,5,0,87,0,=,1,=,1,=,1,18.3,0,14.6,0
2004/3/2,4:30,5.7,0,85,0,=,1,=,1,=,1,18.3,0,14.5,0
2004/3/2,4:45,5.5,0,84,0,=,1,=,1,=,1,18.2,0,14.5,0
2004/3/2,5:00,5.4,0,85,0,=,1,=,1,=,1,18.1,0,14.5,0
2004/3/2,5:15,5.5,0,86,0,=,1,=,1,=,1,18,0,14.5,0
2004/3/2,5:30,5.7,0,84,0,=,1,=,1,=,1,18,0,14.5,0
2004/3/2,5:45,5.7,0,82,0,=,1,=,1,=,1,18,0,14.4,0
2004/3/2,6:00,5.9,0,82,0,=,1,=,1,=,1,17.9,0,14.4,0
2004/3/2,6:15,5.8,0,83,0,=,1,=,1,=,1,17.9,0,14.4,0
2004/3/2,6:30,5.9,0,83,0,=,1,=,1,=,1,17.8,0,14.3,0
2004/3/2,6:45,6,0,83,0,=,1,=,1,=,1,17.7,0,14.3,0
2004/3/2,7:00,5.9,0,82,0,=,1,=,1,=,1,18.7,0,14.3,0
2004/3/2,7:15,5.8,0,84,0,=,1,=,1,=,1,19.9,0,14.3,0
2004/3/2,7:30,5.9,0,85,0,=,1,=,1,=,1,20.9,0,14.3,0
2004/3/2,7:45,6.4,0,82,0,=,1,=,1,=,1,21.8,0,14.2,0
2004/3/2,8:00,7.3,0,70,0,=,1,=,1,=,1,22.2,0,14.2,0
2004/3/2,8:15,8.9,0,59,0,=,1,=,1,=,1,22,0,14.1,0
2004/3/2,8:30,9.1,0,52,0,=,1,=,1,=,1,21.6,0,14.1,0
2004/3/2,8:45,9.3,0,52,0,=,1,=,1,=,1,21.1,0,14.1,0
2004/3/2,9:00,10.2,0,47,0,=,1,=,1,=,1,20.7,0,14,0
2004/3/2,9:15,10,0,45,0,=,1,=,1,=,1,20.1,0,14,0
2004/3/2,9:30,10.3,0,43,0,=,1,=,1,=,1,20.1,0,13.9,0
2004/3/2,9:45,10.2,0,43,0,=,1,=,1,=,1,20,0,13.9,0
2004/3/2,10:00,10,0,42,0,=,1,=,1,=,1,21.1,0,13.9,0
2004/3/2,10:15,10,0,43,0,=,1,=,1,=,1,20.9,0,13.8,0
2004/3/2,10:30,10.7,0,42,0,=,1,=,1,=,1,20.9,0,13.8,0
2004/3/2,10:45,10.9,0,42,0,=,1,=,1,=,1,20.5,0,13.8,0
2004/3/2,11:00,11.9,0,39,0,=,1,=,1,=,1,20.3,0,13.8,0
2004/3/2,11:15,12.7,0,36,0,=,1,=,1,=,1,20.2,0,13.7,0
2004/3/2,11:30,11.6,0,38,0,=,1,=,1,=,1,20,0,13.7,0
2004/3/2,11:45,11.7,0,36,0,=,1,=,1,=,1,20.1,0,13.8,0
2004/3/2,12:00,12.7,0,34,0,=,1,=,1,=,1,20,0,13.8,0
2004/3/2,12:15,14.2,0,29,0,=,1,=,1,=,1,20,0,13.8,0
2004/3/2,12:30,14.4,0,26,0,=,1,=,1,=,1,20,0,13.8,0
2004/3/2,12:45,14.6,0,25,0,=,1,=,1,=,1,20,0,13.8,0
2004/3/2,13:00,14.9,0,25,0,=,1,=,1,=,1,20.1,0,13.8,0
2004/3/2,13:15,15.6,0,25,0,=,1,=,1,=,1,20.2,0,13.7,0
2004/3/2,13:30,15.2,0,26,0,=,1,=,1,=,1,20.4,0,13.7,0
2004/3/2,13:45,14.9,0,26,0,=,1,=,1,=,1,20.6,0,13.7,0
2004/3/2,14:00,14.8,0,26,0,=,1,=,1,=,1,20.6,0,13.6,0
2004/3/2,14:15,14.5,0,26,0,=,1,=,1,=,1,20.8,0,13.6,0
2004/3/2,14:30,13.9,0,29,0,=,1,=,1,=,1,20.8,0,13.7,0
2004/3/2,14:45,12.6,0,32,0,=,1,=,1,=,1,20.8,0,13.7,0
2004/3/2,15:00,13.1,0,32,0,=,1,=,1,=,1,20.7,0,13.8,0
2004/3/2,15:15,12.5,0,31,0,=,1,=,1,=,1,20.6,0,13.8,0
2004/3/2,15:30,12.9,0,33,0,=,1,=,1,=,1,20.6,0,13.9,0
2004/3/2,15:45,12.2,0,33,0,=,1,=,1,=,1,20.6,0,14,0
2004/3/2,16:00,12.2,0,33,0,=,1,=,1,=,1,20.6,0,14,0
2004/3/2,16:15,11.9,0,31,0,=,1,=,1,=,1,20.6,0,14,0
2004/3/2,16:30,11.5,0,28,0,=,1,=,1,=,1,20.6,0,14,0
2004/3/2,16:45,11.3,0,28,0,=,1,=,1,=,1,20.6,0,13.9,0
2004/3/2,17:00,10.9,0,30,0,=,1,=,1,=,1,21.4,0,13.9,0
2004/3/2,17:15,10.8,0,31,0,=,1,=,1,=,1,21.6,0,13.9,0
2004/3/2,17:30,10,0,31,0,=,1,=,1,=,1,21.4,0,14,0
2004/3/2,17:45,9.3,0,31,0,=,1,=,1,=,1,21.3,0,14.1,0
2004/3/2,18:00,9,0,33,0,=,1,=,1,=,1,20.7,0,14.1,0
2004/3/2,18:15,8.7,0,33,0,=,1,=,1,=,1,20.6,0,14.1,0
2004/3/2,18:30,8.2,0,35,0,=,1,=,1,=,1,20.6,0,14.1,0
2004/3/2,18:45,8,0,34,0,=,1,=,1,=,1,20.5,0,14.1,0
2004/3/2,19:00,7.8,0,34,0,=,1,=,1,=,1,20.6,0,14.1,0
2004/3/2,19:15,7.8,0,33,0,=,1,=,1,=,1,20.7,0,14,0
2004/3/2,19:30,7.7,0,33,0,=,1,=,1,=,1,20.7,0,14,0
2004/3/2,19:45,7.5,0,37,0,=,1,=,1,=,1,20.5,0,14,0
2004/3/2,20:00,7.2,0,40,0,=,1,=,1,=,1,20.2,0,13.9,0
2004/3/2,20:15,7.2,0,39,0,=,1,=,1,=,1,19.9,0,13.9,0
2004/3/2,20:30,7,0,41,0,=,1,=,1,=,1,19.9,0,13.9,0
2004/3/2,20:45,7,0,42,0,=,1,=,1,=,1,19.7,0,13.9,0
2004/3/2,21:00,6.6,0,41,0,=,1,=,1,=,1,19.9,0,13.8,0
2004/3/2,21:15,6.5,0,42,0,=,1,=,1,=,1,19.9,0,13.8,0
2004/3/2,21:30,6.5,0,38,0,=,1,=,1,=,1,19.5,0,13.8,0
2004/3/2,21:45,6.4,0,41,0,=,1,=,1,=,1,19.6,0,13.9,0
2004/3/2,22:00,6.3,0,40,0,=,1,=,1,=,1,19.7,0,13.9,0
2004/3/2,22:15,5.7,0,43,0,=,1,=,1,=,1,19.8,0,13.9,0
2004/3/2,22:30,5.6,0,44,0,=,1,=,1,=,1,19.8,0,13.9,0
2004/3/2,22:45,5.7,0,45,0,=,1,=,1,=,1,19.9,0,13.9,0
2004/3/2,23:00,5.2,0,48,0,=,1,=,1,=,1,19.9,0,13.9,0
2004/3/2,23:15,5.2,0,43,0,=,1,=,1,=,1,20.1,0,13.9,0
2004/3/2,23:30,5.2,0,48,0,=,1,=,1,=,1,20.3,0,13.9,0
2004/3/2,23:45,5.2,0,50,0,=,1,=,1,=,1,20.3,0,13.9,0
2004/3/3,0:00,4.8,0,49,0,=,1,=,1,=,1,20.2,0,13.9,0
2004/3/3,0:15,4.6,0,52,0,=,1,=,1,=,1,20.1,0,13.8,0
2004/3/3,0:30,4.7,0,51,0,=,1,=,1,=,1,20,0,13.8,0
2004/3/3,0:45,4.6,0,52,0,=,1,=,1,=,1,19.9,0,13.8,0
2004/3/3,1:00,4.5,0,52,0,=,1,=,1,=,1,19.8,0,13.8,0
2004/3/3,1:15,4.5,0,51,0,=,1,=,1,=,1,19.6,0,13.8,0
2004/3/3,1:30,4.6,0,50,0,=,1,=,1,=,1,19.5,0,13.7,0
2004/3/3,1:45,4.3,0,55,0,=,1,=,1,=,1,19.4,0,13.7,0
2004/3/3,2:00,4.1,0,61,0,=,1,=,1,=,1,19.3,0,13.7,0
2004/3/3,2:15,4,0,56,0,=,1,=,1,=,1,19.2,0,13.7,0
2004/3/3,2:30,4,0,55,0,=,1,=,1,=,1,19.1,0,13.7,0
2004/3/3,2:45,3.5,0,61,0,=,1,=,1,=,1,18.9,0,13.7,0
2004/3/3,3:00,3.7,0,56,0,=,1,=,1,=,1,18.8,0,13.6,0
2004/3/3,3:15,3.8,0,57,0,=,1,=,1,=,1,18.7,0,13.6,0
2004/3/3,3:30,3.8,0,55,0,=,1,=,1,=,1,18.6,0,13.6,0
2004/3/3,3:45,3.8,0,56,0,=,1,=,1,=,1,18.5,0,13.5,0
2004/3/3,4:00,2.9,0,62,0,=,1,=,1,=,1,18.4,0,13.5,0
2004/3/3,4:15,3.1,0,63,0,=,1,=,1,=,1,18.2,0,13.5,0
2004/3/3,4:30,2.8,0,66,0,=,1,=,1,=,1,18.1,0,13.4,0
2004/3/3,4:45,2.7,0,67,0,=,1,=,1,=,1,18,0,13.4,0
2004/3/3,5:00,2.5,0,69,0,=,1,=,1,=,1,17.9,0,13.3,0
2004/3/3,5:15,2.4,0,67,0,=,1,=,1,=,1,17.8,0,13.3,0
2004/3/3,5:30,2.2,0,69,0,=,1,=,1,=,1,17.7,0,13.3,0
2004/3/3,5:45,2.3,0,68,0,=,1,=,1,=,1,17.5,0,13.2,0
2004/3/3,6:00,2.2,0,67,0,=,1,=,1,=,1,17.4,0,13.2,0
2004/3/3,6:15,2,0,69,0,=,1,=,1,=,1,17.3,0,13.1,0
2004/3/3,6:30,1.8,0,71,0,=,1,=,1,=,1,17.2,0,13.1,0
2004/3/3,6:45,1.7,0,72,0,=,1,=,1,=,1,17.1,0,13.1,0
2004/3/3,7:00,1.9,0,71,0,=,1,=,1,=,1,18.3,0,13,0
2004/3/3,7:15,2.1,0,69,0,=,1,=,1,=,1,19.6,0,13,0
2004/3/3,7:30,2.5,0,69,0,=,1,=,1,=,1,20,0,12.9,0
2004/3/3,7:45,2.8,0,69,0,=,1,=,1,=,1,19.6,0,12.9,0
2004/3/3,8:00,3.5,0,70,0,=,1,=,1,=,1,19.5,0,12.9,0
2004/3/3,8:15,4.1,0,68,0,=,1,=,1,=,1,19,0,12.8,0
2004/3/3,8:30,5.6,0,61,0,=,1,=,1,=,1,19,0,12.7,0
2004/3/3,8:45,6.1,0,60,0,=,1,=,1,=,1,18.8,0,12.7,0
2004/3/3,9:00,6.4,0,56,0,=,1,=,1,=,1,18.6,0,12.6,0
2004/3/3,9:15,7,0,52,0,=,1,=,1,=,1,17.9,0,12.6,0
2004/3/3,9:30,7.4,0,54,0,=,1,=,1,=,1,17.8,0,12.6,0
2004/3/3,9:45,7.6,0,44,0,=,1,=,1,=,1,17.3,0,12.6,0
2004/3/3,10:00,8.6,0,50,0,=,1,=,1,=,1,17.4,0,12.6,0
2004/3/3,10:15,10.4,0,36,0,=,1,=,1,=,1,17.4,0,12.6,0
2004/3/3,10:30,10.6,0,31,0,=,1,=,1,=,1,17.1,0,12.5,0
2004/3/3,10:45,10.4,0,32,0,=,1,=,1,=,1,16.8,0,12.5,0
2004/3/3,11:00,9.6,0,32,0,=,1,=,1,=,1,16.6,0,12.6,0
2004/3/3,11:15,9.1,0,34,0,=,1,=,1,=,1,16.3,0,12.6,0
2004/3/3,11:30,9.2,0,33,0,=,1,=,1,=,1,16.1,0,12.6,0
2004/3/3,11:45,9.5,0,32,0,=,1,=,1,=,1,15.9,0,12.6,0
2004/3/3,12:00,9.7,0,32,0,=,1,=,1,=,1,15.6,0,12.7,0
2004/3/3,12:15,10.6,0,31,0,=,1,=,1,=,1,15.5,0,12.7,0
2004/3/3,12:30,10,0,30,0,=,1,=,1,=,1,15.6,0,12.7,0
2004/3/3,12:45,10.2,0,32,0,=,1,=,1,=,1,15.8,0,12.7,0
2004/3/3,13:00,10.7,0,33,0,=,1,=,1,=,1,18.1,0,12.7,0
2004/3/3,13:15,11.5,0,32,0,=,1,=,1,=,1,18.7,0,12.7,0
2004/3/3,13:30,11.6,0,32,0,=,1,=,1,=,1,19.6,0,12.6,0
2004/3/3,13:45,11.1,0,33,0,=,1,=,1,=,1,20.1,0,12.5,0
2004/3/3,14:00,10.8,0,35,0,=,1,=,1,=,1,20.8,0,12.5,0
2004/3/3,14:15,11.2,0,32,0,=,1,=,1,=,1,21.2,0,12.5,0
2004/3/3,14:30,10.7,0,30,0,=,1,=,1,=,1,21.3,0,12.6,0
2004/3/3,14:45,10.9,0,31,0,=,1,=,1,=,1,21.6,0,12.6,0
2004/3/3,15:00,10.2,0,30,0,=,1,=,1,=,1,21.7,0,12.6,0
2004/3/3,15:15,10.6,0,32,0,=,1,=,1,=,1,21.8,0,12.6,0
2004/3/3,15:30,10.8,0,33,0,=,1,=,1,=,1,22,0,12.7,0
2004/3/3,15:45,10.5,0,33,0,=,1,=,1,=,1,22.2,0,12.7,0
2004/3/3,16:00,10,0,36,0,=,1,=,1,=,1,22.3,0,12.8,0
2004/3/3,16:15,10.1,0,35,0,=,1,=,1,=,1,22.4,0,12.8,0
2004/3/3,16:30,10.8,0,32,0,=,1,=,1,=,1,22.6,0,12.8,0
2004/3/3,16:45,11,0,32,0,=,1,=,1,=,1,22.7,0,12.9,0
2004/3/3,17:00,10.8,0,33,0,=,1,=,1,=,1,22.8,0,12.9,0
2004/3/3,17:15,10.6,0,33,0,=,1,=,1,=,1,22.6,0,13,0
2004/3/3,17:30,9.6,0,37,0,=,1,=,1,=,1,22.3,0,13.2,0
2004/3/3,17:45,9.8,0,39,0,=,1,=,1,=,1,21.4,0,13.3,0
2004/3/3,18:00,8.8,0,44,0,=,1,=,1,=,1,21.2,0,13.3,0
2004/3/3,18:15,8.4,0,45,0,=,1,=,1,=,1,20.9,0,13.3,0
2004/3/3,18:30,8,0,45,0,=,1,=,1,=,1,20.7,0,13.3,0
2004/3/3,18:45,8.1,0,52,0,=,1,=,1,=,1,20.4,0,13.3,0
2004/3/3,19:00,7.7,0,61,0,=,1,=,1,=,1,20.2,0,13.3,0
2004/3/3,19:15,7,0,69,0,=,1,=,1,=,1,19.9,0,13.2,0
2004/3/3,19:30,6.6,0,79,0,=,1,=,1,=,1,19.7,0,13.1,0
2004/3/3,19:45,5.9,0,82,0,=,1,=,1,=,1,19.3,0,13,0
2004/3/3,20:00,5.7,0,87,0,=,1,=,1,=,1,19.1,0,13,0
2004/3/3,20:15,6.6,0,89,0,=,1,=,1,=,1,19,0,13,0
2004/3/3,20:30,6.4,0,88,0,=,1,=,1,=,1,19,0,13,0
2004/3/3,20:45,6.2,0,85,0,=,1,=,1,=,1,19.1,0,12.9,0
2004/3/3,21:00,6.3,0,82,0,=,1,=,1,=,1,19.1,0,12.9,0
2004/3/3,21:15,6.6,0,78,0,=,1,=,1,=,1,19.2,0,13,0
2004/3/3,21:30,6.6,0,77,0,=,1,=,1,=,1,19.3,0,13.1,0
2004/3/3,21:45,6.6,0,73,0,=,1,=,1,=,1,19.4,0,13.1,0
2004/3/3,22:00,6.6,0,63,0,=,1,=,1,=,1,19.5,0,13.1,0
2004/3/3,22:15,6.5,0,71,0,=,1,=,1,=,1,19.5,0,13.1,0
2004/3/3,22:30,6.3,0,71,0,=,1,=,1,=,1,19.4,0,13.1,0
2004/3/3,22:45,6.3,0,71,0,=,1,=,1,=,1,19.4,0,13.1,0
2004/3/3,23:00,6,0,73,0,=,1,=,1,=,1,19.5,0,13.1,0
2004/3/3,23:15,5.6,0,79,0,=,1,=,1,=,1,19.4,0,13.1,0
2004/3/3,23:30,5.2,0,83,0,=,1,=,1,=,1,19.4,0,13.1,0
2004/3/3,23:45,4.7,0,86,0,=,1,=,1,=,1,19.4,0,13,0
2004/3/4,0:00,4.6,0,86,0,=,1,=,1,=,1,19.3,0,12.9,0
2004/3/4,0:15,5.1,0,74,0,=,1,=,1,=,1,19.2,0,12.8,0
2004/3/4,0:30,5.3,0,63,0,=,1,=,1,=,1,19.1,0,12.8,0
2004/3/4,0:45,5.3,0,57,0,=,1,=,1,=,1,19,0,12.7,0
2004/3/4,1:00,5,0,52,0,=,1,=,1,=,1,18.9,0,12.6,0
2004/3/4,1:15,4.9,0,49,0,=,1,=,1,=,1,18.8,0,12.5,0
2004/3/4,1:30,4.8,0,48,0,=,1,=,1,=,1,18.6,0,12.5,0
2004/3/4,1:45,4.7,0,43,0,=,1,=,1,=,1,18.5,0,12.4,0
2004/3/4,2:00,4.5,0,42,0,=,1,=,1,=,1,18.4,0,12.3,0
2004/3/4,2:15,4.4,0,41,0,=,1,=,1,=,1,18.2,0,12.3,0
2004/3/4,2:30,4.4,0,42,0,=,1,=,1,=,1,18.1,0,12.2,0
2004/3/4,2:45,4.4,0,39,0,=,1,=,1,=,1,17.9,0,12.1,0
2004/3/4,3:00,4.4,0,41,0,=,1,=,1,=,1,17.8,0,12,0
2004/3/4,3:15,4.4,0,39,0,=,1,=,1,=,1,17.6,0,12,0
2004/3/4,3:30,4.3,0,39,0,=,1,=,1,=,1,17.5,0,11.9,0
2004/3/4,3:45,4.3,0,40,0,=,1,=,1,=,1,17.4,0,11.9,0
2004/3/4,4:00,4.2,0,38,0,=,1,=,1,=,1,17.2,0,11.8,0
2004/3/4,4:15,4.1,0,39,0,=,1,=,1,=,1,17.1,0,11.8,0
2004/3/4,4:30,4,0,41,0,=,1,=,1,=,1,17,0,11.7,0
2004/3/4,4:45,4,0,40,0,=,1,=,1,=,1,16.8,0,11.6,0
2004/3/4,5:00,3.9,0,41,0,=,1,=,1,=,1,16.7,0,11.6,0
2004/3/4,5:15,4,0,37,0,=,1,=,1,=,1,16.6,0,11.5,0
2004/3/4,5:30,4,0,39,0,=,1,=,1,=,1,16.5,0,11.5,0
2004/3/4,5:45,3.9,0,40,0,=,1,=,1,=,1,16.4,0,11.4,0
2004/3/4,6:00,3.7,0,42,0,=,1,=,1,=,1,16.3,0,11.4,0
2004/3/4,6:15,3.8,0,42,0,=,1,=,1,=,1,16.2,0,11.3,0
2004/3/4,6:30,3.7,0,45,0,=,1,=,1,=,1,16.1,0,11.3,0
2004/3/4,6:45,3.6,0,44,0,=,1,=,1,=,1,16,0,11.2,0
2004/3/4,7:00,3.5,0,47,0,=,1,=,1,=,1,17.7,0,11.2,0
2004/3/4,7:15,3.5,0,51,0,=,1,=,1,=,1,19,0,11.3,0
2004/3/4,7:30,3.9,0,51,0,=,1,=,1,=,1,19.9,0,11.4,0
2004/3/4,7:45,4.3,0,52,0,=,1,=,1,=,1,20.6,0,11.4,0
2004/3/4,8:00,4.5,0,51,0,=,1,=,1,=,1,21.2,0,11.4,0
2004/3/4,8:15,5.6,0,51,0,=,1,=,1,=,1,21.6,0,11.3,0
2004/3/4,8:30,6.6,0,50,0,=,1,=,1,=,1,21.9,0,11.3,0
2004/3/4,8:45,5.6,0,54,0,=,1,=,1,=,1,21.7,0,11.1,0
2004/3/4,9:00,6.6,0,52,0,=,1,=,1,=,1,21.8,0,11.1,0
2004/3/4,9:15,5.9,0,59,0,=,1,=,1,=,1,21.8,0,11,0
2004/3/4,9:30,8,0,40,0,=,1,=,1,=,1,21,0,11,0
2004/3/4,9:45,8.4,0,39,0,=,1,=,1,=,1,20.1,0,11.1,0
2004/3/4,10:00,9.7,0,36,0,=,1,=,1,=,1,19.7,0,11.1,0
2004/3/4,10:15,11.5,0,30,0,=,1,=,1,=,1,19.6,0,11.3,0
2004/3/4,10:30,12.3,0,30,0,=,1,=,1,=,1,19.1,0,11.5,0
2004/3/4,10:45,13.3,0,30,0,=,1,=,1,=,1,18.7,0,11.7,0
2004/3/4,11:00,12.5,0,29,0,=,1,=,1,=,1,18.7,0,11.9,0
2004/3/4,11:15,12.9,0,31,0,=,1,=,1,=,1,18.6,0,12.1,0
2004/3/4,11:30,11.7,0,33,0,=,1,=,1,=,1,18.5,0,12.2,0
2004/3/4,11:45,8.5,0,40,0,=,1,=,1,=,1,18.5,0,12.3,0
2004/3/4,12:00,8.7,0,41,0,=,1,=,1,=,1,18.4,0,12.4,0
2004/3/4,12:15,11.7,0,32,0,=,1,=,1,=,1,18.2,0,12.5,0
2004/3/4,12:30,10.6,0,30,0,=,1,=,1,=,1,18.1,0,12.5,0
2004/3/4,12:45,10.8,0,28,0,=,1,=,1,=,1,17.9,0,12.6,0
2004/3/4,13:00,12.5,0,27,0,=,1,=,1,=,1,17.8,0,12.6,0
2004/3/4,13:15,12.8,0,26,0,=,1,=,1,=,1,17.7,0,12.7,0
2004/3/4,13:30,11.9,0,26,0,=,1,=,1,=,1,17.7,0,12.7,0
2004/3/4,13:45,12.1,0,25,0,=,1,=,1,=,1,17.7,0,12.7,0
2004/3/4,14:00,11.7,0,26,0,=,1,=,1,=,1,17.8,0,12.8,0
2004/3/4,14:15,10.8,0,26,0,=,1,=,1,=,1,17.9,0,12.8,0
2004/3/4,14:30,10.8,0,28,0,=,1,=,1,=,1,19.3,0,12.8,0
2004/3/4,14:45,10,0,29,0,=,1,=,1,=,1,19.6,0,12.8,0
2004/3/4,15:00,9.5,0,27,0,=,1,=,1,=,1,20.2,0,12.8,0
2004/3/4,15:15,9.5,0,27,0,=,1,=,1,=,1,20.7,0,12.8,0
2004/3/4,15:30,9.5,0,27,0,=,1,=,1,=,1,21.1,0,12.7,0
2004/3/4,15:45,9.1,0,28,0,=,1,=,1,=,1,21,0,12.8,0
2004/3/4,16:00,8.8,0,28,0,=,1,=,1,=,1,20.9,0,12.8,0
2004/3/4,16:15,8.3,0,28,0,=,1,=,1,=,1,20.7,0,12.8,0
2004/3/4,16:30,8.5,0,29,0,=,1,=,1,=,1,20.6,0,12.9,0
2004/3/4,16:45,8.2,0,29,0,=,1,=,1,=,1,20.5,0,12.9,0
2004/3/4,17:00,8,0,29,0,=,1,=,1,=,1,20.4,0,13,0
2004/3/4,17:15,7.7,0,30,0,=,1,=,1,=,1,20.3,0,13,0
2004/3/4,17:30,7.3,0,30,0,=,1,=,1,=,1,20.2,0,13,0
2004/3/4,17:45,6.8,0,32,0,=,1,=,1,=,1,20.1,0,13,0
2004/3/4,18:00,6.7,0,32,0,=,1,=,1,=,1,20,0,13,0
2004/3/4,18:15,6.2,0,33,0,=,1,=,1,=,1,19.8,0,13.1,0
2004/3/4,18:30,5.9,0,35,0,=,1,=,1,=,1,19.6,0,13.1,0
2004/3/4,18:45,5.6,0,40,0,=,1,=,1,=,1,19.4,0,13.1,0
2004/3/4,19:00,5.3,0,44,0,=,1,=,1,=,1,19.4,0,13.2,0
2004/3/4,19:15,4.2,0,44,0,=,1,=,1,=,1,19.5,0,13.2,0
2004/3/4,19:30,3.5,0,50,0,=,1,=,1,=,1,19.3,0,13.2,0
2004/3/4,19:45,2.8,0,55,0,=,1,=,1,=,1,19.2,0,13.2,0
2004/3/4,20:00,2.6,0,56,0,=,1,=,1,=,1,19.1,0,13.2,0
2004/3/4,20:15,2.8,0,54,0,=,1,=,1,=,1,18.9,0,13.1,0
2004/3/4,20:30,2.4,0,55,0,=,1,=,1,=,1,18.9,0,13.1,0
2004/3/4,20:45,2.3,0,57,0,=,1,=,1,=,1,18.7,0,12.9,0
2004/3/4,21:00,2.1,0,58,0,=,1,=,1,=,1,18.5,0,12.9,0
2004/3/4,21:15,2,0,58,0,=,1,=,1,=,1,18.2,0,12.8,0
2004/3/4,21:30,2,0,61,0,=,1,=,1,=,1,18.1,0,12.7,0
2004/3/4,21:45,1.5,0,61,0,=,1,=,1,=,1,18.1,0,12.6,0
2004/3/4,22:00,1.7,0,62,0,=,1,=,1,=,1,18.1,0,12.5,0
2004/3/4,22:15,1.4,0,61,0,=,1,=,1,=,1,17.9,0,12.5,0
2004/3/4,22:30,1.3,0,62,0,=,1,=,1,=,1,17.9,0,12.4,0
2004/3/4,22:45,1.2,0,62,0,=,1,=,1,=,1,17.7,0,12.4,0
2004/3/4,23:00,0.9,0,67,0,=,1,=,1,=,1,17.6,0,12.4,0
2004/3/4,23:15,1.1,0,64,0,=,1,=,1,=,1,17.5,0,12.3,0
2004/3/4,23:30,1.1,0,64,0,=,1,=,1,=,1,17.5,0,12.3,0
2004/3/4,23:45,1,0,64,0,=,1,=,1,=,1,17.5,0,12.2,0
2004/3/5,0:00,1,0,64,0,=,1,=,1,=,1,17.4,0,12.1,0
2004/3/5,0:15,1.1,0,63,0,=,1,=,1,=,1,17.2,0,12,0
2004/3/5,0:30,1,0,65,0,=,1,=,1,=,1,17,0,11.9,0
2004/3/5,0:45,0.7,0,69,0,=,1,=,1,=,1,16.8,0,11.8,0
2004/3/5,1:00,0.7,0,69,0,=,1,=,1,=,1,16.6,0,11.8,0
2004/3/5,1:15,0.6,0,70,0,=,1,=,1,=,1,16.5,0,11.7,0
2004/3/5,1:30,0.4,0,72,0,=,1,=,1,=,1,16.3,0,11.7,0
2004/3/5,1:45,0.4,0,73,0,=,1,=,1,=,1,16.1,0,11.6,0
2004/3/5,2:00,0.3,0,74,0,=,1,=,1,=,1,15.9,0,11.6,0
2004/3/5,2:15,0.2,0,74,0,=,1,=,1,=,1,15.8,0,11.5,0
2004/3/5,2:30,0.5,0,71,0,=,1,=,1,=,1,15.6,0,11.5,0
2004/3/5,2:45,0.4,0,69,0,=,1,=,1,=,1,15.4,0,11.4,0
2004/3/5,3:00,0.1,0,74,0,=,1,=,1,=,1,15.3,0,11.3,0
2004/3/5,3:15,0,0,76,0,=,1,=,1,=,1,15.1,0,11.2,0
2004/3/5,3:30,0.2,0,72,0,=,1,=,1,=,1,14.9,0,11.2,0
2004/3/5,3:45,0,0,73,0,=,1,=,1,=,1,14.8,0,11.1,0
2004/3/5,4:00,-0.2,0,77,0,=,1,=,1,=,1,14.7,0,11.1,0
2004/3/5,4:15,-0.1,0,77,0,=,1,=,1,=,1,14.5,0,11,0
2004/3/5,4:30,0,0,76,0,=,1,=,1,=,1,14.4,0,11,0
2004/3/5,4:45,1.8,0,60,0,=,1,=,1,=,1,14.4,0,10.9,0
2004/3/5,5:00,2.1,0,52,0,=,1,=,1,=,1,14.3,0,10.9,0
2004/3/5,5:15,2.3,0,51,0,=,1,=,1,=,1,14.2,0,10.8,0
2004/3/5,5:30,2.3,0,51,0,=,1,=,1,=,1,14.1,0,10.8,0
2004/3/5,5:45,2.6,0,52,0,=,1,=,1,=,1,14,0,10.7,0
2004/3/5,6:00,2.8,0,54,0,=,1,=,1,=,1,13.9,0,10.6,0
2004/3/5,6:15,3.1,0,54,0,=,1,=,1,=,1,13.9,0,10.6,0
2004/3/5,6:30,3.2,0,55,0,=,1,=,1,=,1,13.8,0,10.5,0
2004/3/5,6:45,3.5,0,54,0,=,1,=,1,=,1,13.7,0,10.5,0
2004/3/5,7:00,3.3,0,55,0,=,1,=,1,=,1,14.2,0,10.4,0
2004/3/5,7:15,3.3,0,56,0,=,1,=,1,=,1,15.2,0,10.3,0
2004/3/5,7:30,3.4,0,55,0,=,1,=,1,=,1,15.1,0,10.3,0
2004/3/5,7:45,4.1,0,50,0,=,1,=,1,=,1,15.2,0,10.3,0
2004/3/5,8:00,4.3,0,47,0,=,1,=,1,=,1,17.3,0,10.3,0
2004/3/5,8:15,4.7,0,46,0,=,1,=,1,=,1,19,0,10.3,0
2004/3/5,8:30,5.4,0,43,0,=,1,=,1,=,1,18.5,0,10.5,0
2004/3/5,8:45,6.1,0,42,0,=,1,=,1,=,1,18.1,0,10.6,0
2004/3/5,9:00,6.5,0,42,0,=,1,=,1,=,1,17.5,0,10.7,0
2004/3/5,9:15,7.3,0,41,0,=,1,=,1,=,1,17,0,10.9,0
2004/3/5,9:30,8.9,0,38,0,=,1,=,1,=,1,16.6,0,11,0
2004/3/5,9:45,9.8,0,37,0,=,1,=,1,=,1,16.1,0,11.2,0
2004/3/5,10:00,9.3,0,38,0,=,1,=,1,=,1,16.4,0,11.4,0
2004/3/5,10:15,9.9,0,37,0,=,1,=,1,=,1,16.7,0,11.6,0
2004/3/5,10:30,9.9,0,38,0,=,1,=,1,=,1,16.8,0,11.7,0
2004/3/5,10:45,10.4,0,36,0,=,1,=,1,=,1,16.4,0,11.9,0
2004/3/5,11:00,11.7,0,38,0,=,1,=,1,=,1,16.2,0,12,0
2004/3/5,11:15,10.9,0,36,0,=,1,=,1,=,1,16.3,0,12.1,0
2004/3/5,11:30,12.4,0,34,0,=,1,=,1,=,1,16.4,0,12.3,0
2004/3/5,11:45,11.8,0,35,0,=,1,=,1,=,1,16.1,0,12.3,0
2004/3/5,12:00,12.5,0,35,0,=,1,=,1,=,1,15.9,0,12.4,0
2004/3/5,12:15,12.2,0,36,0,=,1,=,1,=,1,15.8,0,12.5,0
2004/3/5,12:30,10.4,0,42,0,=,1,=,1,=,1,15.7,0,12.6,0
2004/3/5,12:45,10.5,0,44,0,=,1,=,1,=,1,15.6,0,12.7,0
2004/3/5,13:00,12.5,0,39,0,=,1,=,1,=,1,15.5,0,12.8,0
2004/3/5,13:15,13.1,0,38,0,=,1,=,1,=,1,15.4,0,12.8,0
2004/3/5,13:30,12,0,41,0,=,1,=,1,=,1,15.4,0,12.9,0
2004/3/5,13:45,12.1,0,40,0,=,1,=,1,=,1,15.5,0,12.9,0
2004/3/5,14:00,12.3,0,41,0,=,1,=,1,=,1,15.6,0,13,0
2004/3/5,14:15,13.8,0,35,0,=,1,=,1,=,1,15.7,0,13,0
2004/3/5,14:30,12.6,0,40,0,=,1,=,1,=,1,15.8,0,13.1,0
2004/3/5,14:45,12.9,0,40,0,=,1,=,1,=,1,15.8,0,13.1,0
2004/3/5,15:00,13.3,0,40,0,=,1,=,1,=,1,15.9,0,13.2,0
2004/3/5,15:15,13.1,0,38,0,=,1,=,1,=,1,15.9,0,13.2,0
2004/3/5,15:30,11.8,0,46,0,=,1,=,1,=,1,15.9,0,13.2,0
2004/3/5,15:45,10.8,0,57,0,=,1,=,1,=,1,16.7,0,13.3,0
2004/3/5,16:00,10.7,0,62,0,=,1,=,1,=,1,18.3,0,13.3,0
2004/3/5,16:15,11.2,0,58,0,=,1,=,1,=,1,18.8,0,13.3,0
2004/3/5,16:30,10.8,0,57,0,=,1,=,1,=,1,19.4,0,13.4,0
2004/3/5,16:45,10.9,0,57,0,=,1,=,1,=,1,19.9,0,13.4,0
2004/3/5,17:00,11.2,0,56,0,=,1,=,1,=,1,19.3,0,13.5,0
2004/3/5,17:15,11,0,60,0,=,1,=,1,=,1,19.2,0,13.6,0
2004/3/5,17:30,10.2,0,62,0,=,1,=,1,=,1,19.1,0,13.7,0
2004/3/5,17:45,10.4,0,63,0,=,1,=,1,=,1,19.1,0,13.7,0